Location: �terpigny
(49.8910°N, 2.9249°E)
Time: 22:57:32
(UTC+00:00)

DIWATA 2B (PO-101) - Pass Details

Date: 30 June 2022
Orbit: 583 x 599 km, 98.0° (Epoch: 16 August)

Event Time Altitude Azimuth Distance (km) Brightness Sun altitude
Exits shadow 01:30:43 15° 163° (SSE) 1,656 ? -13.7°
Maximum altitude 01:34:14 87° 77° (ENE) 607 ? -13.5°
Drops below altitude 10° 01:38:30 10° 347° (NNW) 1,953 ? -13.2°
Sets 01:40:40 0° 347° (NNW) 2,860 ? -13.0°
